Dyersburg, TN

7:39 AM CST on January 23, 2017 (GMT -0600)
Dyersburg Municipal

Weather History for KDYR - October, 2011

Change the Weather History Date:

Wednesday, October 5, 2011

  Actual Average Record
Temperature  
Mean Temperature 65 °F -  
Max Temperature 82 °F 72 °F 87 °F (2000)
Min Temperature 48 °F 52 °F 37 °F (1999)
Growing Degree Days 15 (Base 50)    
Moisture  
Dew Point 47 °F    
Average Humidity 55    
Maximum Humidity 82    
Minimum Humidity 30    
Precipitation  
Precipitation 0.00 in - - ()
Sea Level Pressure  
Sea Level Pressure 30.22 in    
Wind  
Wind Speed 2 mph (East)    
Max Wind Speed 9 mph    
Max Gust Speed -    
Visibility 10 miles    
Events      
Averages and records for this station are not official NWS values.
T = Trace of Precipitation, MM = Missing Value Source: NWS Daily Summary

Daily Weather History Graph

Daily Weather History Graph

Search for Another Location

Airport or City:

Trip Planner

Search our weather history database for the weather conditions in past years. The results will help you decide how hot, cold, wet, or windy it might be!

Date:

Astronomy

Oct. 05, 2011 Rise Set
Actual Time 6:55 AM CDT 6:35 PM CDT
Civil Twilight 6:30 AM CDT 7:01 PM CDT
Nautical Twilight 6:00 AM CDT 7:31 PM CDT
Astronomical Twilight 5:30 AM CDT 8:00 PM CDT
Moon 3:06 PM CDT (10/5) 12:53 AM CDT (10/5)
Length of Visible Light 12h 31m
Length of Day
11h 40m
Waxing Gibbous, 66% of the Moon is Illuminated
Oct 5
Waxing Gibbous
Oct 11
Full
Oct 19
Last Quarter
Oct 26
New
Nov 2
First Quarter

Hourly Weather History & Observations

Time (CDT) Temp. Dew Point Humidity Pressure Visibility Wind Dir Wind Speed Gust Speed Precip Events Conditions
12:15 AM 51.8 °F 44.6 °F 76% 30.24 in 10.0 mi Calm Calm - N/A   Clear
12:35 AM 51.8 °F 44.6 °F 76% 30.23 in 10.0 mi Calm Calm - N/A   Clear
12:55 AM 51.8 °F 44.6 °F 76% 30.23 in 10.0 mi Calm Calm - N/A   Clear
1:15 AM 51.8 °F 44.6 °F 76% 30.23 in 10.0 mi Calm Calm - N/A   Clear
1:35 AM 51.8 °F 44.6 °F 76% 30.23 in 10.0 mi Calm Calm - N/A   Clear
2:15 AM 51.8 °F 44.6 °F 76% 30.24 in 10.0 mi Calm Calm - N/A   Clear
2:35 AM 51.8 °F 44.6 °F 76% 30.23 in 10.0 mi Calm Calm - N/A   Clear
2:55 AM 51.8 °F 44.6 °F 76% 30.23 in 10.0 mi Calm Calm - N/A   Clear
3:15 AM 51.8 °F 44.6 °F 76% 30.23 in 10.0 mi Calm Calm - N/A   Clear
3:35 AM 51.8 °F 44.6 °F 76% 30.23 in 10.0 mi Calm Calm - N/A   Clear
3:55 AM 50.0 °F 42.8 °F 76% 30.24 in 10.0 mi Calm Calm - N/A   Clear
4:15 AM 50.0 °F 44.6 °F 82% 30.24 in 10.0 mi Calm Calm - N/A   Clear
4:55 AM 50.0 °F 42.8 °F 76% 30.24 in 10.0 mi Calm Calm - N/A   Clear
5:15 AM 50.0 °F 42.8 °F 76% 30.25 in 10.0 mi Calm Calm - N/A   Clear
5:35 AM 48.2 °F 42.8 °F 82% 30.25 in 10.0 mi Calm Calm - N/A   Clear
5:55 AM 48.2 °F 42.8 °F 82% 30.25 in 9.0 mi Calm Calm - N/A   Clear
6:35 AM 48.2 °F 41.0 °F 76% 30.26 in 10.0 mi East 3.5 mph - N/A   Clear
6:55 AM 48.2 °F 42.8 °F 82% 30.27 in 10.0 mi Calm Calm - N/A   Clear
7:15 AM 48.2 °F 42.8 °F 82% 30.27 in 10.0 mi East 3.5 mph - N/A   Clear
7:35 AM 48.2 °F 42.8 °F 82% 30.27 in 10.0 mi East 3.5 mph - N/A   Clear
7:55 AM 51.8 °F 46.4 °F 82% 30.27 in 10.0 mi East 4.6 mph - N/A   Clear
8:15 AM 55.4 °F 46.4 °F 72% 30.27 in 10.0 mi Calm Calm - N/A   Clear
8:35 AM 57.2 °F 48.2 °F 72% 30.28 in 10.0 mi Calm Calm - N/A   Clear
9:15 AM 62.6 °F 50.0 °F 63% 30.28 in 10.0 mi East 3.5 mph - N/A   Clear
9:35 AM 66.2 °F 50.0 °F 56% 30.28 in 10.0 mi East 3.5 mph - N/A   Clear
9:55 AM 69.8 °F 48.2 °F 46% 30.28 in 10.0 mi East 4.6 mph - N/A   Clear
10:15 AM 71.6 °F 50.0 °F 46% 30.28 in 10.0 mi ESE 3.5 mph - N/A   Clear
10:35 AM 73.4 °F 48.2 °F 41% 30.28 in 10.0 mi East 5.8 mph - N/A   Clear
10:55 AM 73.4 °F 48.2 °F 41% 30.27 in 10.0 mi East 5.8 mph - N/A   Clear
11:15 AM 75.2 °F 48.2 °F 38% 30.27 in 10.0 mi ENE 4.6 mph - N/A   Clear
11:35 AM 77.0 °F 48.2 °F 36% 30.26 in 10.0 mi East 4.6 mph - N/A   Clear
11:55 AM 78.8 °F 48.2 °F 34% 30.26 in 10.0 mi ESE 6.9 mph - N/A   Clear
12:15 PM 78.8 °F 48.2 °F 34% 30.25 in 10.0 mi East 6.9 mph - N/A   Clear
12:35 PM 78.8 °F 48.2 °F 34% 30.24 in 8.0 mi SSE 5.8 mph - N/A   Clear
12:55 PM 80.6 °F 48.2 °F 32% 30.23 in 10.0 mi SSE 5.8 mph - N/A   Clear
1:15 PM 80.6 °F 46.4 °F 30% 30.22 in 10.0 mi South 5.8 mph - N/A   Clear
1:35 PM 80.6 °F 48.2 °F 32% 30.21 in 10.0 mi SSE 4.6 mph - N/A   Clear
1:55 PM 80.6 °F 46.4 °F 30% 30.20 in 10.0 mi North 5.8 mph - N/A   Clear
2:35 PM 80.6 °F 46.4 °F 30% 30.19 in 10.0 mi East 5.8 mph - N/A   Clear
2:55 PM 80.6 °F 46.4 °F 30% 30.18 in 3.0 mi Calm Calm - N/A   Clear
3:15 PM 82.4 °F 48.2 °F 30% 30.17 in 3.0 mi ESE 9.2 mph - N/A   Clear
3:35 PM 80.6 °F 48.2 °F 32% 30.17 in 10.0 mi ENE 5.8 mph - N/A   Clear
4:15 PM 80.6 °F 48.2 °F 32% 30.16 in 7.0 mi East 4.6 mph - N/A   Clear
4:55 PM 80.6 °F 48.2 °F 32% 30.16 in 10.0 mi ESE 5.8 mph - N/A   Clear
5:15 PM 80.6 °F 48.2 °F 32% 30.15 in 10.0 mi ENE 5.8 mph - N/A   Clear
5:35 PM 80.6 °F 48.2 °F 32% 30.15 in 3.0 mi East 4.6 mph - N/A   Clear
5:55 PM 78.8 °F 48.2 °F 34% 30.15 in 10.0 mi East 4.6 mph - N/A   Clear
6:15 PM 77.0 °F 48.2 °F 36% 30.15 in 10.0 mi East 3.5 mph - N/A   Clear
6:35 PM 75.2 °F 48.2 °F 38% 30.15 in 10.0 mi Calm Calm - N/A   Clear
6:55 PM 71.6 °F 48.2 °F 43% 30.16 in 10.0 mi Calm Calm - N/A   Clear
7:15 PM 69.8 °F 48.2 °F 46% 30.16 in 10.0 mi East 3.5 mph - N/A   Clear
7:35 PM 69.8 °F 48.2 °F 46% 30.16 in 10.0 mi East 3.5 mph - N/A   Clear
7:55 PM 68.0 °F 50.0 °F 52% 30.16 in 10.0 mi East 3.5 mph - N/A   Clear
8:15 PM 68.0 °F 50.0 °F 52% 30.16 in 10.0 mi East 4.6 mph - N/A   Clear
8:35 PM 68.0 °F 50.0 °F 52% 30.17 in 10.0 mi East 5.8 mph - N/A   Clear
8:55 PM 66.2 °F 50.0 °F 56% 30.17 in 10.0 mi East 4.6 mph - N/A   Clear
9:15 PM 66.2 °F 50.0 °F 56% 30.17 in 10.0 mi East 3.5 mph - N/A   Clear
9:35 PM 64.4 °F 48.2 °F 56% 30.18 in 10.0 mi East 4.6 mph - N/A   Clear
9:55 PM 64.4 °F 48.2 °F 56% 30.18 in 10.0 mi East 3.5 mph - N/A   Clear
10:15 PM 60.8 °F 48.2 °F 63% 30.18 in 10.0 mi Calm Calm - N/A   Clear
10:35 PM 60.8 °F 48.2 °F 63% 30.18 in 10.0 mi Calm Calm - N/A   Clear
10:55 PM 59.0 °F 48.2 °F 67% 30.18 in 10.0 mi Calm Calm - N/A   Clear
11:15 PM 59.0 °F 48.2 °F 67% 30.18 in 10.0 mi East 3.5 mph - N/A   Clear
11:35 PM 57.2 °F 48.2 °F 72% 30.18 in 10.0 mi Calm Calm - N/A   Clear
11:55 PM 57.2 °F 48.2 °F 72% 30.18 in 10.0 mi Calm Calm - N/A   Clear